Weather home | Your neighborhood | Marine | Radar | Hurricane | Almanac

Daily weather history


Statistical History for Saturday, August 12, 2017

Tampa Knight Airport, FL


  Actual Average (KTPA) Record (KTPA)
Temperature
Mean Temperature -  
Max Temperature 88 °F 96 °F (1972)
Min Temperature 74 °F 69 °F (1931)
Cooling Degree Days    
Growing Degree Days 36 (Base - )  
Moisture
Dew Point   
Average Humidity    
Maximum Humidity    
Minimum Humidity    
Precipitation
Precipitation - - ()
Wind
Wind Speed   
Max Wind Speed   
Max Gust Speed   
Visibility   
Events   
Averages and records for this station are not official NWS values.
Key: T is trace of precipitation, MM is missing value
Source: NWS Daily Summary
Seasonal Weather Averages
Time(EDT)TemperatureDew PointHumidity Sea Level Pressure Visibility Wind DirectionWind SpeedGust SpeedPrecipitationEventsConditions
12:15 AM 82.4 °F 82.4 °F 100% 30.03 in 10.0 miles SSE 8.1 mph - N/A   Overcast
12:35 AM 82.4 °F 82.4 °F 100% 30.03 in 10.0 miles South 4.6 mph - N/A   Overcast
12:55 AM 82.4 °F 82.4 °F 100% 30.02 in 10.0 miles South 6.9 mph - N/A   Overcast
1:15 AM 82.4 °F 82.4 °F 100% 30.01 in 10.0 miles South 5.8 mph - N/A   Overcast
1:35 AM 82.4 °F 82.4 °F 100% 30.01 in 10.0 miles SSE 5.8 mph - N/A   Overcast
1:55 AM 80.6 °F 80.6 °F 100% 30.00 in 10.0 miles SSE 6.9 mph - N/A   Overcast
2:15 AM 80.6 °F 80.6 °F 100% 30.00 in 10.0 miles SSE 5.8 mph - N/A   Overcast
2:35 AM 80.6 °F 80.6 °F 100% 30.00 in 10.0 miles SSE 6.9 mph - N/A   Mostly Cloudy
2:55 AM 80.6 °F 80.6 °F 100% 30.00 in 10.0 miles South 5.8 mph - N/A   Overcast
3:15 AM 80.6 °F 80.6 °F 100% 29.99 in 10.0 miles South 6.9 mph - N/A   Mostly Cloudy
3:35 AM 80.6 °F 80.6 °F 100% 29.99 in 10.0 miles South 6.9 mph - N/A   Overcast
3:55 AM 80.6 °F 80.6 °F 100% 29.99 in 10.0 miles SSE 5.8 mph - N/A   Mostly Cloudy
4:15 AM 80.6 °F 80.6 °F 100% 29.99 in 10.0 miles SSE 4.6 mph - N/A   Mostly Cloudy
4:35 AM 80.6 °F 80.6 °F 100% 29.98 in 10.0 miles SE 4.6 mph - N/A   Mostly Cloudy
4:55 AM 80.6 °F 80.6 °F 100% 29.99 in 10.0 miles SSE 4.6 mph - N/A   Mostly Cloudy
5:15 AM 80.6 °F 80.6 °F 100% 29.99 in 10.0 miles SSE 5.8 mph - N/A   Scattered Clouds
5:35 AM 80.6 °F 80.6 °F 100% 30.00 in 10.0 miles South 5.8 mph - N/A   Clear
5:55 AM 80.6 °F 80.6 °F 100% 30.00 in 10.0 miles South 8.1 mph - N/A   Mostly Cloudy
6:15 AM 80.6 °F 80.6 °F 100% 30.00 in 10.0 miles South 5.8 mph - N/A   Mostly Cloudy
6:35 AM 80.6 °F 80.6 °F 100% 30.00 in 10.0 miles South 4.6 mph - N/A   Mostly Cloudy
6:55 AM 80.6 °F 80.6 °F 100% 30.01 in 10.0 miles South 6.9 mph - N/A   Mostly Cloudy
7:15 AM 80.6 °F 80.6 °F 100% 30.01 in 10.0 miles South 6.9 mph - N/A   Scattered Clouds
7:35 AM 80.6 °F 80.6 °F 100% 30.02 in 10.0 miles South 5.8 mph - N/A   Scattered Clouds
7:55 AM 82.4 °F 82.4 °F 100% 30.02 in 10.0 miles SSE 5.8 mph - N/A   Clear
8:15 AM 82.4 °F 82.4 °F 100% 30.04 in 10.0 miles SSE 4.6 mph - N/A   Scattered Clouds
8:35 AM 82.4 °F 82.4 °F 100% 30.04 in 10.0 miles South 3.5 mph - N/A   Scattered Clouds
8:55 AM 84.2 °F 84.2 °F 100% 30.04 in 10.0 miles South 5.8 mph - N/A   Mostly Cloudy
9:15 AM 84.2 °F 80.6 °F 89% 30.04 in 10.0 miles South 4.6 mph - N/A   Overcast
9:35 AM 82.4 °F 78.8 °F 89% 30.05 in 10.0 miles WNW 5.8 mph - N/A   Overcast
9:55 AM 80.6 °F 80.6 °F 100% 30.05 in 1.5 miles North 6.9 mph - 0.18 in Rain Heavy Rain
10:15 AM 78.8 °F 78.8 °F 100% 30.04 in 7.0 miles North 3.5 mph - N/A   Overcast
10:35 AM 80.6 °F 80.6 °F 100% 30.06 in 10.0 miles Calm Calm - N/A   Mostly Cloudy
10:55 AM 80.6 °F 80.6 °F 100% 30.05 in 10.0 miles Calm Calm - N/A   Scattered Clouds
11:15 AM 82.4 °F 82.4 °F 100% 30.04 in 10.0 miles Calm Calm - N/A   Scattered Clouds
11:35 AM 86.0 °F 78.8 °F 79% 30.03 in 10.0 miles NW 5.8 mph - N/A   Mostly Cloudy
11:55 AM 87.8 °F 77.0 °F 70% 30.03 in 10.0 miles Calm Calm - N/A   Scattered Clouds
12:15 PM 87.8 °F 77.0 °F 70% 30.02 in 10.0 miles Calm Calm - N/A   Clear
12:35 PM 89.6 °F 75.2 °F 62% 30.02 in 10.0 miles Calm Calm - N/A   Scattered Clouds
12:55 PM 89.6 °F 77.0 °F 66% 30.01 in 10.0 miles West 4.6 mph - N/A   Mostly Cloudy
1:15 PM 91.4 °F 77.0 °F 63% 30.01 in 10.0 miles WSW 3.5 mph - N/A   Scattered Clouds
1:35 PM 91.4 °F 77.0 °F 63% 30.01 in 10.0 miles West 3.5 mph - N/A   Clear
1:55 PM 91.4 °F 77.0 °F 63% 30.01 in 10.0 miles SW 3.5 mph - N/A   Mostly Cloudy
2:15 PM 91.4 °F 77.0 °F 63% 30.00 in 10.0 miles South 5.8 mph - N/A   Overcast
2:35 PM 91.4 °F 78.8 °F 66% 30.00 in 10.0 miles South 4.6 mph - N/A   Overcast
2:55 PM 91.4 °F 78.8 °F 66% 29.99 in 10.0 miles South 5.8 mph - N/A   Overcast
3:15 PM 91.4 °F 78.8 °F 66% 29.98 in 10.0 miles WSW 3.5 mph - N/A   Mostly Cloudy
3:35 PM 93.2 °F 78.8 °F 63% 29.98 in 10.0 miles West 4.6 mph - N/A   Overcast
3:55 PM 93.2 °F 78.8 °F 63% 29.98 in 10.0 miles West 8.1 mph - N/A   Overcast
4:15 PM 93.2 °F 77.0 °F 59% 29.97 in 10.0 miles NW 6.9 mph - N/A   Overcast
4:35 PM 91.4 °F 77.0 °F 63% 29.97 in 10.0 miles West 6.9 mph - N/A   Overcast
4:55 PM 91.4 °F 77.0 °F 63% 29.96 in 10.0 miles NW 5.8 mph - N/A   Overcast
5:15 PM 91.4 °F 77.0 °F 63% 29.96 in 10.0 miles West 6.9 mph - N/A   Overcast
5:35 PM 91.4 °F 75.2 °F 59% 29.97 in 10.0 miles WNW 4.6 mph - N/A   Overcast
5:55 PM 89.6 °F 75.2 °F 62% 29.98 in 10.0 miles West 4.6 mph - N/A   Overcast
6:15 PM 87.8 °F 78.8 °F 75% 29.97 in 10.0 miles SW 8.1 mph - N/A   Mostly Cloudy
6:35 PM 87.8 °F 78.8 °F 75% 29.96 in 10.0 miles SW 5.8 mph - N/A   Scattered Clouds
6:55 PM 87.8 °F 78.8 °F 75% 29.97 in 10.0 miles SW 5.8 mph - N/A   Mostly Cloudy
7:15 PM 87.8 °F 78.8 °F 75% 29.98 in 10.0 miles SW 3.5 mph - N/A   Mostly Cloudy
7:35 PM 87.8 °F 78.8 °F 75% 29.97 in 10.0 miles Calm Calm - N/A   Overcast
7:55 PM 87.8 °F 80.6 °F 79% 29.97 in 10.0 miles SSW 5.8 mph - N/A   Overcast
8:15 PM 86.0 °F 78.8 °F 79% 29.98 in 10.0 miles SSW 5.8 mph - N/A   Overcast
8:35 PM 86.0 °F 80.6 °F 84% 29.98 in 10.0 miles SSW 5.8 mph - N/A   Overcast
8:55 PM 86.0 °F 80.6 °F 84% 29.98 in 10.0 miles SSW 5.8 mph - N/A   Overcast
9:15 PM 86.0 °F 80.6 °F 84% 29.98 in 10.0 miles SSE 3.5 mph - N/A Rain Light Rain
9:35 PM 86.0 °F 80.6 °F 84% 29.99 in 10.0 miles Calm Calm - N/A Rain Light Rain
9:55 PM 86.0 °F 80.6 °F 84% 29.99 in 10.0 miles Calm Calm - N/A Rain Light Rain
10:15 PM 86.0 °F 82.4 °F 89% 30.00 in 10.0 miles SSE 3.5 mph - N/A   Overcast
10:35 PM 86.0 °F 82.4 °F 89% 30.00 in 10.0 miles Calm Calm - N/A   Mostly Cloudy
10:55 PM 86.0 °F 82.4 °F 89% 30.00 in 10.0 miles SSE 3.5 mph - N/A   Mostly Cloudy
11:15 PM 86.0 °F 82.4 °F 89% 30.00 in 10.0 miles SE 3.5 mph - N/A   Overcast
11:35 PM 86.0 °F 80.6 °F 84% 30.01 in 10.0 miles Calm Calm - N/A   Mostly Cloudy
11:55 PM 86.0 °F 80.6 °F 84% 30.00 in 10.0 miles SE 4.6 mph - N/A   Overcast
ADVERTISEMENT
Enter city or zip code to search weather conditions:


  • 490 First Avenue South
  • St. Petersburg, FL 33701
  • 727-893-8111